Terug naar catalogus

FENGYUN 1C DEB

ActiefLEO
NORAD 37065·DEBRIS·🇨🇳 China

Gelanceerd May 10, 1999 vanaf Taiyuan Satellite Launch Center

Loading…

Volgende Passages (komende 24 uur)

TLE

VerouderendSource: Space-Track

Epoch: Sep 11, 2026, 11:50 UTC

1 37065U 99025EEZ 26254.49352618  .00001923  00000-0  19825-2 0  9995
2 37065 103.2824 170.4835 0298802  10.6841 350.0452 13.60236362259096

Volg FENGYUN 1C DEB in realtime met AllMySat

Download on the App Store